Flag for U.S.A. Weather past 2 weeks in Milwaukee, Wisconsin, U.S.A.

Now
66 °F

Scattered clouds.


Feels Like: 66 °F
Forecast: 53 / 75 °F
Wind: 9 mph from South

Location: Milwaukee / Timmerman

Current Time: May 3, 2015 at 9:58:14 AM

Latest Report: May 3, 2015 at 8:45 AM


Visibility: 10 mi

Pressure: 29.94 "Hg

Humidity: 37%

Dew point: 39 °F

Location of MilwaukeeLocation

Historic Weather in Milwaukee — Graph

°F

Milwaukee temperature yesterday

Maximum temperature yesterday: 75 °F (at 2:45 PM)
Minimum temperature yesterday: 52 °F (at 12:15 AM)
Average temperature yesterday: 59 °F

Past Weeks' High & Low Weather Summary

 TemperatureHumidityPressure
High75 °F (May 2, 2:45 PM)94% (Apr 20, 7:45 AM)30.18 "Hg (Apr 20, 7:45 AM)
Low28 °F (Apr 23, 4:55 AM)19% (Apr 23, 5:45 PM)29.19 "Hg (Apr 20, 4:15 AM)
Average43 °F64%29.91 "Hg
* Reported Apr 18 7:15 AM — May 3 7:45 AM, Milwaukee, Weather by CustomWeather, © 2015

Note: Actual official high and low records may vary slightly from our data, if they occured in-between our weather recording intervals... More about our weather records

Advertising

Milwaukee weather history for previous 24 hours

 ConditionsComfort  
Time TempWeatherWind HumidityBarometerVisibility
7:45 AM
Sun, May 3
61 °FScattered clouds.No wind52%29.95 "Hg10 mi
7:15 AM59 °FScattered clouds.3 mph55%29.95 "Hg10 mi
6:55 AM57 °FPartly sunny.3 mph59%29.95 "Hg10 mi
6:35 AM55 °FPartly cloudy.5 mph63%29.95 "Hg10 mi
6:15 AM57 °FMostly cloudy.6 mph59%29.95 "Hg10 mi
5:55 AM57 °FDrizzle. Mostly cloudy.6 mph63%29.95 "Hg10 mi
5:15 AM59 °FMostly cloudy.3 mph55%29.94 "Hg10 mi
4:55 AM59 °FOvercast.5 mph55%29.94 "Hg10 mi
4:35 AM57 °FPassing clouds.3 mph55%29.94 "Hg10 mi
4:15 AM55 °FMostly cloudy.3 mph55%29.94 "Hg10 mi
3:55 AM57 °FMostly cloudy.No wind51%29.94 "Hg10 mi
3:15 AM55 °FPassing clouds.5 mph55%29.95 "Hg10 mi
2:55 AM57 °FPassing clouds.6 mph48%29.95 "Hg10 mi
2:35 AM57 °FOvercast.5 mph51%29.95 "Hg10 mi
2:15 AM59 °FPassing clouds.5 mph45%29.95 "Hg10 mi
1:55 AM57 °FPassing clouds.5 mph48%29.95 "Hg10 mi
1:35 AM55 °FPassing clouds.5 mph51%29.94 "Hg10 mi
1:15 AM55 °FClear.5 mph51%29.94 "Hg10 mi
12:55 AM59 °FPassing clouds.6 mph45%29.94 "Hg10 mi
12:35 AM59 °FPassing clouds.5 mph45%29.95 "Hg10 mi
12:15 AM59 °FPassing clouds.3 mph42%29.95 "Hg10 mi
11:55 PM
Sat, May 2
59 °FClear.5 mph42%29.95 "Hg10 mi
11:35 PM59 °FPassing clouds.6 mph45%29.95 "Hg10 mi
11:15 PM59 °FPassing clouds.6 mph45%29.95 "Hg10 mi
10:55 PM61 °FPassing clouds.5 mph39%29.94 "Hg10 mi
10:15 PM63 °FPassing clouds.6 mph37%29.95 "Hg10 mi
9:15 PM64 °FClear.6 mph34%29.94 "Hg10 mi
8:45 PM70 °FPartly sunny.5 mph29%29.93 "Hg10 mi
7:45 PM72 °FScattered clouds.8 mph25%29.92 "Hg10 mi
5:45 PM75 °FScattered clouds.14 mph22%29.92 "Hg10 mi
4:45 PM75 °FScattered clouds.14 mph22%29.93 "Hg10 mi
3:45 PM75 °FSunny.8 mph22%29.94 "Hg10 mi
2:45 PM75 °FSunny.14 mph24%29.97 "Hg10 mi
1:45 PM73 °FSunny.10 mph23%29.98 "Hg10 mi
12:45 PM73 °FSunny.12 mph23%30.01 "Hg10 mi
11:45 AM72 °FSunny.7 mph23%30.03 "Hg10 mi
10:45 AM70 °FSunny.10 mph27%30.04 "Hg10 mi
9:45 AM64 °FScattered clouds.8 mph28%30.06 "Hg10 mi
Weather by CustomWeather, © 2015

See weather overviewHow to use our weather pages